Time,TemperatureF,DewpointF,PressureIn,WindDirection,WindDirectionDegrees,WindSpeedMPH,WindSpeedGustMPH,Humidity,HourlyPrecipIn,Conditions,Clouds,dailyrainin,SoftwareType,DateUTC
2013-08-18 00:03:00,-999.0,-99.9,30.16,SW,225,5.0,9.0,-999,-99.99,,,0.00,,2013-08-18 04:03:00,
2013-08-18 01:43:00,49.0,-99.9,30.16,SSW,202,1.0,6.0,0,-99.99,,,0.00,,2013-08-18 05:43:00,
2013-08-18 01:52:00,49.0,-99.9,30.16,SSW,202,1.0,6.0,0,-99.99,,,0.00,,2013-08-18 05:52:00,
2013-08-18 02:01:00,49.0,-99.9,30.16,SSW,202,1.0,6.0,0,-99.99,,,0.00,,2013-08-18 06:01:00,
2013-08-18 02:42:00,48.0,-99.9,30.15,South,180,0.0,5.0,0,-99.99,,,0.00,,2013-08-18 06:42:00,
2013-08-18 02:52:00,48.0,-99.9,30.15,South,180,0.0,5.0,0,-99.99,,,0.00,,2013-08-18 06:52:00,
2013-08-18 03:01:00,48.0,-99.9,30.15,South,180,0.0,5.0,0,-99.99,,,0.00,,2013-08-18 07:01:00,
2013-08-18 05:03:00,49.0,-99.9,30.14,SW,225,7.0,8.0,0,-99.99,,,-99.99,,2013-08-18 09:03:00,
2013-08-18 05:53:00,49.0,-99.9,30.14,SW,225,7.0,8.0,0,-99.99,,,-99.99,,2013-08-18 09:53:00,
2013-08-18 06:43:00,49.0,-99.9,30.15,SW,225,6.0,9.0,0,-99.99,,,0.00,,2013-08-18 10:43:00,
2013-08-18 06:52:00,49.0,-99.9,30.15,SW,225,6.0,9.0,0,-99.99,,,0.00,,2013-08-18 10:52:00,
2013-08-18 07:02:00,49.0,-99.9,30.15,SW,225,6.0,9.0,0,-99.99,,,0.00,,2013-08-18 11:02:00,
2013-08-18 07:42:00,52.0,-99.9,30.14,WSW,247,7.0,10.0,0,-99.99,,,0.00,,2013-08-18 11:42:00,
2013-08-18 07:52:00,52.0,-99.9,30.14,WSW,247,7.0,10.0,0,-99.99,,,0.00,,2013-08-18 11:52:00,
2013-08-18 08:01:00,52.0,-99.9,30.14,WSW,247,7.0,10.0,0,-99.99,,,0.00,,2013-08-18 12:01:00,
2013-08-18 08:42:00,56.0,-99.9,30.12,WSW,247,4.0,12.0,0,-99.99,,,0.00,,2013-08-18 12:42:00,
2013-08-18 08:52:00,56.0,-99.9,30.12,WSW,247,4.0,12.0,0,-99.99,,,0.00,,2013-08-18 12:52:00,
2013-08-18 09:01:00,56.0,-99.9,30.12,WSW,247,4.0,12.0,0,-99.99,,,0.00,,2013-08-18 13:01:00,
2013-08-18 09:42:00,62.0,-99.9,30.10,NW,315,10.0,14.0,0,-99.99,,,0.00,,2013-08-18 13:42:00,
2013-08-18 09:52:00,62.0,-99.9,30.10,NW,315,10.0,14.0,0,-99.99,,,0.00,,2013-08-18 13:52:00,
2013-08-18 10:02:00,62.0,-99.9,30.10,NW,315,10.0,14.0,0,-99.99,,,0.00,,2013-08-18 14:02:00,
2013-08-18 10:42:00,67.0,-99.9,30.07,WNW,292,9.0,16.0,0,-99.99,,,0.00,,2013-08-18 14:42:00,
2013-08-18 10:53:00,67.0,-99.9,30.07,WNW,292,9.0,16.0,0,-99.99,,,0.00,,2013-08-18 14:53:00,
2013-08-18 11:01:00,67.0,-99.9,30.07,WNW,292,9.0,16.0,0,-99.99,,,0.00,,2013-08-18 15:01:00,
2013-08-18 11:03:00,71.0,-99.9,30.04,West,270,4.0,13.0,0,-99.99,,,0.00,,2013-08-18 15:03:00,
2013-08-18 11:43:00,71.0,-99.9,30.04,West,270,4.0,13.0,0,-99.99,,,0.00,,2013-08-18 15:43:00,
2013-08-18 11:54:00,71.0,-99.9,30.04,West,270,4.0,13.0,0,-99.99,,,0.00,,2013-08-18 15:54:00,
2013-08-18 12:42:00,74.0,-99.9,30.01,WSW,247,11.0,16.0,0,-99.99,,,0.00,,2013-08-18 16:42:00,
2013-08-18 12:52:00,74.0,-99.9,30.01,WSW,247,11.0,16.0,0,-99.99,,,0.00,,2013-08-18 16:52:00,
2013-08-18 13:02:00,74.0,-99.9,30.01,WSW,247,11.0,16.0,0,-99.99,,,0.00,,2013-08-18 17:02:00,
2013-08-18 13:43:00,76.0,-99.9,30.00,West,270,11.0,19.0,0,-99.99,,,0.00,,2013-08-18 17:43:00,
2013-08-18 13:52:00,76.0,-99.9,30.00,West,270,11.0,19.0,0,-99.99,,,0.00,,2013-08-18 17:52:00,
2013-08-18 14:02:00,76.0,-99.9,30.00,West,270,11.0,19.0,0,-99.99,,,0.00,,2013-08-18 18:02:00,
2013-08-18 14:43:00,77.0,-99.9,29.98,West,270,7.0,22.0,0,-99.99,,,0.00,,2013-08-18 18:43:00,
2013-08-18 14:52:00,77.0,-99.9,29.98,West,270,7.0,22.0,0,-99.99,,,0.00,,2013-08-18 18:52:00,
2013-08-18 15:01:00,77.0,-99.9,29.98,West,270,7.0,22.0,0,-99.99,,,0.00,,2013-08-18 19:01:00,
2013-08-18 15:42:00,78.0,-99.9,29.95,WNW,292,10.0,25.0,0,-99.99,,,0.00,,2013-08-18 19:42:00,
2013-08-18 15:52:00,78.0,-99.9,29.95,WNW,292,10.0,25.0,0,-99.99,,,0.00,,2013-08-18 19:52:00,
2013-08-18 16:02:00,78.0,-99.9,29.95,WNW,292,10.0,25.0,0,-99.99,,,0.00,,2013-08-18 20:02:00,
2013-08-18 16:52:00,78.0,-99.9,29.91,West,270,13.0,26.0,0,-99.99,,,-99.99,,2013-08-18 20:52:00,
2013-08-18 17:01:00,78.0,-99.9,29.91,West,270,13.0,26.0,0,-99.99,,,-99.99,,2013-08-18 21:01:00,
2013-08-18 17:03:00,77.0,-99.9,29.90,West,270,9.0,21.0,0,-99.99,,,-99.99,,2013-08-18 21:03:00,
2013-08-18 17:42:00,77.0,-99.9,29.90,West,270,9.0,21.0,0,-99.99,,,-99.99,,2013-08-18 21:42:00,
2013-08-18 17:54:00,77.0,-99.9,29.90,West,270,9.0,21.0,0,-99.99,,,-99.99,,2013-08-18 21:54:00,
2013-08-18 18:42:00,76.0,-99.9,29.89,WSW,247,8.0,18.0,0,-99.99,,,-99.99,,2013-08-18 22:42:00,
2013-08-18 18:52:00,76.0,-99.9,29.89,WSW,247,8.0,18.0,0,-99.99,,,-99.99,,2013-08-18 22:52:00,
2013-08-18 19:02:00,76.0,-99.9,29.89,WSW,247,8.0,18.0,0,-99.99,,,-99.99,,2013-08-18 23:02:00,
2013-08-18 19:03:00,74.0,-99.9,29.89,West,270,6.0,21.0,0,-99.99,,,0.00,,2013-08-18 23:03:00,
2013-08-18 19:42:00,74.0,-99.9,29.89,West,270,6.0,21.0,0,-99.99,,,0.00,,2013-08-18 23:42:00,
2013-08-18 19:52:00,74.0,-99.9,29.89,West,270,6.0,21.0,0,-99.99,,,0.00,,2013-08-18 23:52:00,
2013-08-18 20:42:00,71.0,-99.9,29.89,West,270,0.0,13.0,0,-99.99,,,-99.99,,2013-08-19 00:42:00,
2013-08-18 20:52:00,71.0,-99.9,29.89,West,270,0.0,13.0,0,-99.99,,,-99.99,,2013-08-19 00:52:00,
2013-08-18 21:02:00,71.0,-99.9,29.89,West,270,0.0,13.0,0,-99.99,,,-99.99,,2013-08-19 01:02:00,
2013-08-18 21:03:00,65.0,-99.9,29.89,SSW,202,3.0,5.0,0,-99.99,,,0.00,,2013-08-19 01:03:00,
2013-08-18 21:42:00,65.0,-99.9,29.89,SSW,202,3.0,5.0,0,-99.99,,,0.00,,2013-08-19 01:42:00,
2013-08-18 21:52:00,65.0,-99.9,29.89,SSW,202,3.0,5.0,0,-99.99,,,0.00,,2013-08-19 01:52:00,
2013-08-18 22:42:00,66.0,-99.9,29.88,West,270,4.0,8.0,0,-99.99,,,0.00,,2013-08-19 02:42:00,
2013-08-18 22:52:00,66.0,-99.9,29.88,West,270,4.0,8.0,0,-99.99,,,0.00,,2013-08-19 02:52:00,
2013-08-18 23:01:00,66.0,-99.9,29.88,West,270,4.0,8.0,0,-99.99,,,0.00,,2013-08-19 03:01:00,
2013-08-18 23:03:00,66.0,-99.9,29.87,West,270,3.0,14.0,0,-99.99,,,0.00,,2013-08-19 03:03:00,
2013-08-18 23:53:00,66.0,-99.9,29.87,West,270,3.0,14.0,0,-99.99,,,0.00,,2013-08-19 03:53:00,